Location: Eaton Estates
(41.3089°N, 82.0057°W)
Time: 01:19:32
(UTC+00:00)

BEESAT 2 - Pass Details

Date: 06 April 2023
Orbit: 429 x 466 km, 64.9° (Epoch: 07 June)

Event Time Altitude Azimuth Distance (km) Brightness Sun altitude
Exits shadow 08:33:19 25° 97° (E) 992 ? -26.6°
Drops below altitude 10° 08:35:49 10° 57° (ENE) 1,641 ? -26.2°
Enters shadow 09:32:35 -68° 215° (SW) 12,249 ? -17.1°
